www.pogodaiklimat.ru

Погода и климат >> Архив погоды >> Австралия >> Tibooburra Airport


ПОГОДА в Tibooburra Airport

  • Прогноз погоды в Tibooburra Airport
  • Монитор погоды в Tibooburra Airport
  • Климат города

АРХИВ ПОГОДЫ в Tibooburra Airport

Время (UTC), дата Ветер
(напр.,м/с)
 
Видим.   Явления Облачность Т
(С)
Тd
(С)
f
(%)
Тe
(С)
Тes
(С)
Комфортность P
(гПа)
Po
(гПа)
Тmin
(С)
Tmax
(С)
R
(мм)
R24
(мм)
S
(см)
08 14.10 ЮВ 7 н/о н/о +25.5 +2.2 22 +24 +24 комфорт 1015.4 994.9
07 14.10 Ю 7 н/о н/о +26.2 +2.2 21 +25 +25 комфорт 1015.4 994.9
09 14.10 Ю 7 н/о н/о +24.3 +2.5 24 +23 +23 комфорт 1016.1 995.6
10 14.10 Ю 5 н/о н/о +23.2 +2.7 26 +23 +23 комфорт 1016.6 996.1
11 14.10 ЮВ 4 н/о н/о +22.1 +3.3 29 +22 +22 комфорт 1017.3 996.8
12 14.10 Ю 5 н/о н/о +21.3 +3.5 31 +21 +21 комфорт 1017.8 997.3
14 14.10 Ю 6 н/о н/о +20.1 +3.3 33 +20 +20 1017.0 996.5
13 14.10 Ю 5 н/о н/о +20.7 +3.9 33 +21 +21 комфорт 1017.4 996.9 +27.3
15 14.10 Ю 6 н/о н/о +19.6 +3.7 35 +20 +20 1016.6 996.1
16 14.10 Ю 6 н/о н/о +18.8 +3.4 36 +19 +19 1016.1 995.6
17 14.10 Ю 5 н/о н/о +18.1 +3.2 37 +18 +18 1015.5 995.0
18 14.10 Ю 5 н/о н/о +17.4 +3.0 38 +17 +17 1015.0 994.5
20 14.10 Ю 5 н/о н/о +16.9 +2.9 39 +16 +16 1015.4 994.9
19 14.10 Ю 5 н/о н/о +17.2 +2.8 38 +17 +17 1015.0 994.5
21 14.10 Ю 5 н/о н/о +18.3 +3.0 36 +18 +18 1016.3 995.8
22 14.10 ЮВ 7 н/о н/о +20.6 +4.6 35 +21 +21 комфорт 1016.8 996.3
23 14.10 В 7 н/о н/о +23.4 +7.5 36 +24 +24 комфорт 1017.0 996.5
00 15.10 В 5 н/о н/о +25.5 +8.1 33 +26 +26 жарко 1016.8 996.3
02 15.10 В 5 н/о н/о +28.5 +5.4 23 +27 +27 жарко 1015.4 994.9
01 15.10 В 5 н/о н/о +27.7 +7.5 28 +27 +27 жарко 1016.2 995.7 +16.8
03 15.10 СВ 5 н/о н/о +29.8 +2.9 18 +28 +28 жарко 1014.7 994.2
04 15.10 В 6 н/о н/о +31.3 +2.5 16 +29 +29 жарко 1014.1 993.6
05 15.10 В 6 н/о н/о +31.8 +2.0 15 +29 +29 жарко 1013.1 992.7
06 15.10 В 7 н/о н/о +31.5 +0.8 14 +29 +29 жарко 1012.8 992.4
08 15.10 В 7 н/о н/о +30.2 +3.3 18 +28 +28 жарко 1013.1 992.7
07 15.10 В 8 н/о н/о +30.9 +1.3 15 +28 +28 жарко 1012.8 992.4
09 15.10 В 7 н/о н/о +28.3 +7.5 27 +28 +28 жарко 1013.9 993.5
10 15.10 В 6 н/о н/о +27.2 +7.6 29 +27 +27 жарко 1014.8 994.3
11 15.10 В 5 н/о н/о +25.9 +7.5 31 +26 +26 жарко 1015.5 995.0
12 15.10 В 4 н/о н/о +24.4 +7.1 33 +25 +25 комфорт 1015.9 995.4
14 15.10 В 7 н/о н/о +23.7 +6.9 34 +24 +24 комфорт 1016.1 995.6
13 15.10 В 4 н/о н/о +23.4 +6.7 34 +24 +24 комфорт 1016.0 995.5 +32.2
15 15.10 В 5 н/о н/о +22.5 +9.3 43 +24 +24 комфорт 1016.1 995.6
16 15.10 В 5 н/о н/о +21.2 +10.1 49 +23 +23 комфорт 1016.1 995.6
17 15.10 В 4 н/о н/о +19.6 +9.8 53 +21 +21 комфорт 1016.1 995.6
18 15.10 В 3 н/о н/о +19.5 +10.2 55 +21 +21 комфорт 1016.4 995.9
20 15.10 В 4 н/о н/о +17.6 +10.5 63 +17 +17 1017.9 997.4
19 15.10 В 4 н/о н/о +18.4 +10.3 59 +19 +19 1017.2 996.7
21 15.10 В 4 н/о н/о +20.3 +11.2 56 +22 +22 комфорт 1018.6 998.1
22 15.10 В 9 н/о н/о +22.8 +11.2 48 +25 +25 комфорт 1019.1 998.5
23 15.10 В 9 н/о н/о +24.3 +10.6 42 +25 +25 комфорт 1019.5 998.9
00 16.10 В 8 н/о н/о +25.8 +9.6 36 +26 +26 жарко 1019.5 998.9
02 16.10 В 9 н/о н/о +28.4 +8.1 28 +28 +28 жарко 1017.9 997.4
01 16.10 В 9 н/о н/о +27.0 +8.9 32 +27 +27 жарко 1018.7 998.2 +17.6
03 16.10 В 9 н/о н/о +29.0 +7.6 26 +28 +28 жарко 1016.8 996.3
04 16.10 В 8 н/о н/о +29.3 +6.0 23 +28 +28 жарко 1016.0 995.5
05 16.10 В 9 н/о н/о +29.3 +4.0 20 +27 +27 жарко 1015.4 994.9
06 16.10 В 9 н/о н/о +29.5 +6.2 23 +28 +28 жарко 1014.8 994.3
08 16.10 В 9 н/о н/о +27.8 +6.6 26 +27 +27 жарко 1015.3 994.8
07 16.10 В 9 н/о н/о +29.2 +6.6 24 +28 +28 жарко 1014.8 994.3
09 16.10 В 8 н/о н/о +26.4 +5.9 27 +26 +26 жарко 1015.9 995.4
10 16.10 В 7 н/о н/о +24.9 +6.1 30 +25 +25 комфорт 1016.6 996.1
11 16.10 В 7 н/о н/о +24.2 +6.5 32 +24 +24 комфорт 1017.1 996.6
12 16.10 В 6 н/о н/о +23.3 +7.0 35 +24 +24 комфорт 1017.6 997.1
14 16.10 В 6 н/о н/о +23.3 +7.8 37 +24 +24 комфорт 1017.9 997.4
13 16.10 В 7 н/о н/о +23.1 +7.2 36 +24 +24 комфорт 1017.9 997.4 +31.0
15 16.10 В 6 н/о н/о +22.0 +8.2 41 +23 +23 комфорт 1017.4 996.9
16 16.10 В 5 н/о н/о +20.8 +8.8 46 +22 +22 комфорт 1016.8 996.3
17 16.10 В 4 н/о н/о +19.5 +8.8 50 +21 +21 комфорт 1016.4 995.9
18 16.10 В 5 н/о н/о +19.7 +9.9 53 +21 +21 комфорт 1016.4 995.9
20 16.10 В 6 н/о н/о +19.4 +10.7 57 +20 +20 1017.2 996.7
19 16.10 В 5 н/о н/о +19.6 +10.0 54 +21 +21 комфорт 1016.9 996.4
21 16.10 В 7 н/о н/о +21.2 +11.0 52 +23 +23 комфорт 1017.6 997.1
22 16.10 В 10 н/о н/о +23.0 +11.1 47 +25 +25 комфорт 1018.0 997.5
23 16.10 В 11 н/о н/о +24.1 +10.7 43 +25 +25 комфорт 1018.2 997.7
00 17.10 В 11 н/о н/о +25.7 +11.1 40 +27 +27 жарко 1018.0 997.5
02 17.10 СВ 9 н/о н/о +27.9 +9.7 32 +28 +28 жарко 1016.5 996.0
01 17.10 В 10 н/о н/о +27.5 +10.7 35 +28 +28 жарко 1017.1 996.6 +19.1
03 17.10 В 9 н/о н/о +29.0 +10.2 31 +29 +29 жарко 1015.8 995.3
04 17.10 В 8 н/о н/о +29.8 +9.3 28 +29 +29 жарко 1015.2 994.7
05 17.10 В 7 н/о н/о +29.3 +8.9 28 +29 +29 жарко 1014.4 993.9
06 17.10 В 8 н/о н/о +29.9 +8.9 27 +29 +29 жарко 1014.1 993.6
08 17.10 В 8 н/о н/о +29.2 +8.8 28 +29 +29 жарко 1014.3 993.8
07 17.10 В 8 н/о н/о +30.0 +9.0 27 +29 +29 жарко 1014.1 993.6
09 17.10 В 8 н/о н/о +28.0 +8.8 30 +28 +28 жарко 1014.6 994.1
10 17.10 В 7 н/о н/о +26.8 +8.7 32 +27 +27 жарко 1015.5 995.0
11 17.10 В 9 н/о н/о +26.0 +9.4 35 +26 +26 жарко 1016.2 995.7
12 17.10 В 8 н/о н/о +25.2 +10.3 39 +26 +26 жарко 1016.8 996.3
14 17.10 СВ 7 н/о н/о +23.7 +11.4 46 +25 +25 комфорт 1017.2 996.7
13 17.10 СВ 7 н/о н/о +24.5 +10.8 42 +26 +26 жарко 1017.1 996.6 +31.1
15 17.10 СВ 7 н/о н/о +22.8 +11.8 50 +25 +25 комфорт 1016.8 996.3
16 17.10 В 7 н/о н/о +22.1 +12.4 54 +25 +25 комфорт 1016.5 996.0
17 17.10 СВ 7 н/о н/о +21.3 +12.7 58 +24 +24 комфорт 1016.2 995.7
18 17.10 СВ 7 н/о н/о +20.8 +12.8 60 +23 +23 комфорт 1016.2 995.7
20 17.10 СВ 9 н/о н/о +21.1 +14.0 64 +24 +24 комфорт 1017.1 996.6
19 17.10 СВ 7 н/о н/о +20.7 +13.2 62 +23 +23 комфорт 1016.6 996.1
21 17.10 СВ 10 н/о н/о +21.3 +14.2 64 +24 +24 комфорт 1017.5 997.0
22 17.10 СВ 9 н/о н/о +21.7 +14.4 63 +25 +25 комфорт 1017.9 997.4
23 17.10 СВ 9 н/о н/о +22.3 +14.2 60 +26 +26 жарко 1018.2 997.7
00 18.10 СВ 9 н/о н/о +22.7 +14.5 60 +26 +26 жарко 1018.1 997.6
02 18.10 СВ 7 н/о н/о +25.3 +14.1 50 +28 +28 жарко 1017.1 996.6
01 18.10 СВ 8 н/о н/о +23.9 +14.6 56 +27 +27 жарко 1017.6 997.1 +20.5
03 18.10 СВ 8 н/о н/о +27.7 +13.6 42 +30 +30 жарко 1015.9 995.4
04 18.10 СВ 8 н/о н/о +28.7 +13.0 38 +30 +30 жарко 1015.0 994.5
05 18.10 СВ 9 н/о н/о +30.0 +12.9 35 +31 +31 жарко 1014.2 993.7
06 18.10 СВ 8 н/о н/о +30.0 +12.4 34 +31 +31 жарко 1013.7 993.3
08 18.10 СВ 6 н/о н/о +29.0 +12.8 37 +30 +30 жарко 1014.5 994.0
07 18.10 СВ 8 н/о н/о +29.8 +12.7 35 +31 +31 жарко 1013.9 993.5
09 18.10 СВ 5 н/о н/о +28.5 +13.6 40 +30 +30 жарко 1015.0 994.5
10 18.10 СВ 3 н/о н/о +27.6 +13.5 42 +29 +29 жарко 1015.7 995.2
11 18.10 СВ 4 н/о н/о +27.5 +13.8 43 +30 +30 жарко 1016.4 995.9
12 18.10 СВ 5 н/о н/о +26.6 +13.7 45 +29 +29 жарко 1016.8 996.3
14 18.10 СВ 7 н/о н/о +25.7 +14.5 50 +28 +28 жарко 1016.7 996.2
13 18.10 СВ 4 н/о н/о +25.6 +14.1 49 +28 +28 жарко 1016.8 996.3 +31.2
15 18.10 СВ 7 н/о н/о +25.7 +15.1 52 +29 +29 душно 1016.4 995.9
16 18.10 СВ 7 н/о н/о +25.2 +15.2 54 +28 +28 жарко 1015.8 995.3
17 18.10 СВ 6 н/о н/о +24.8 +15.4 56 +28 +28 жарко 1015.7 995.2
18 18.10 СВ 4 н/о н/о +24.1 +15.6 59 +27 +27 жарко 1015.7 995.2
20 18.10 СВ 6 н/о н/о +24.0 +16.8 64 +28 +28 душно 1016.9 996.4
19 18.10 СВ 4 н/о н/о +23.6 +15.9 62 +27 +27 жарко 1016.3 995.8
21 18.10 СВ 7 н/о н/о +25.7 +16.8 58 +29 +29 душно 1017.5 997.0
22 18.10 СВ 7 н/о н/о +26.2 +17.0 57 +30 +30 душно 1018.1 997.6
23 18.10 С 7 н/о н/о +27.8 +17.0 52 +32 +32 душно 1018.4 997.9
00 19.10 С 7 н/о н/о +28.6 +16.8 49 +32 +32 душно 1018.3 997.8
02 19.10 С 5 н/о н/о +31.5 +15.9 39 +34 +34 душно 1017.2 996.7
01 19.10 С 5 н/о н/о +30.6 +17.0 44 +34 +34 очень
душно
1017.9 997.4 +22.8
03 19.10 СВ 4 н/о н/о +31.9 +14.5 35 +34 +34 душно 1016.6 996.1
04 19.10 ЮВ 2 н/о н/о +32.2 +14.3 34 +34 +34 душно 1015.7 995.2
05 19.10 СВ 2 н/о н/о +33.6 +14.6 32 +35 +35 душно 1015.0 994.5
06 19.10 СВ 7 н/о н/о +28.7 +18.5 54 +34 +34 очень
душно
1015.4 994.9
08 19.10 СВ 8 н/о н/о +25.4 +21.3 78 +32 +32 очень
душно
1016.0 995.5
07 19.10 СВ 10 н/о н/о +25.9 +20.7 73 +32 +32 очень
душно
1015.5 995.0
09 19.10 СВ 5 н/о н/о +24.4 +21.3 83 +31 +31 очень
душно
1016.5 996.0
10 19.10 СВ 4 н/о н/о +24.3 +22.2 88 +32 +32 очень
душно
1016.7 996.2
11 19.10 Ю 12 н/о н/о +22.6 +20.3 87 +29 +29 очень
душно
1019.3 998.7
12 19.10 Ю 7 н/о н/о +20.3 +20.3 100 +24 +24 комфорт 1020.7 1000.1
14 19.10 Ю 6 н/о н/о +20.3 +20.3 100 +24 +24 комфорт 1020.2 999.6
13 19.10 ЮВ 7 н/о туман местами н/о +20.2 +20.2 100 +24 +24 комфорт 1020.6 1000.0 +34.2
15 19.10 Ю 5 н/о н/о +20.6 +20.6 100 +25 +25 комфорт 1020.3 999.7
16 19.10 ЮВ 3 н/о {туман} н/о +20.4 +20.4 100 +25 +25 комфорт 1019.4 998.8
17 19.10 штиль 0 н/о н/о +20.3 +20.3 100 +24 +24 комфорт 1019.3 998.7
18 19.10 Ю 4 н/о н/о +20.5 +20.5 100 +25 +25 комфорт 1019.5 998.9
20 19.10 Ю 8 н/о н/о +17.0 +11.9 72 +16 +16 1021.5 1000.9
19 19.10 Ю 8 н/о н/о +18.3 +16.3 88 +18 +18 1020.1 999.5
21 19.10 Ю 7 н/о н/о +16.6 +11.3 71 +15 +15 1022.5 1001.9
22 19.10 Ю 9 н/о н/о +17.7 +10.8 64 +17 +17 1023.1 1002.5
23 19.10 Ю 8 н/о н/о +17.6 +9.5 59 +17 +17 1023.6 1003.0
00 20.10 Ю 8 н/о н/о +18.8 +10.1 57 +19 +19 1024.2 1003.5
02 20.10 Ю 9 н/о н/о +21.7 +9.9 47 +23 +23 комфорт 1023.2 1002.6
01 20.10 Ю 8 н/о н/о +20.2 +10.3 53 +21 +21 комфорт 1024.0 1003.3 +16.7
03 20.10 Ю 8 н/о н/о +23.1 +9.1 41 +25 +25 комфорт 1022.6 1002.0
04 20.10 Ю 7 н/о н/о +23.9 +7.1 34 +24 +24 комфорт 1021.7 1001.1
05 20.10 Ю 8 н/о н/о +25.1 +6.8 31 +25 +25 комфорт 1020.8 1000.2
06 20.10 Ю 7 н/о н/о +25.3 +6.0 29 +25 +25 комфорт 1020.3 999.7
08 20.10 Ю 7 н/о н/о +25.3 +2.7 23 +24 +24 комфорт 1020.3 999.7
07 20.10 Ю 8 н/о н/о +25.6 +4.1 25 +25 +25 комфорт 1020.2 999.6
09 20.10 Ю 7 н/о н/о +23.8 +0.8 22 +23 +23 комфорт 1021.0 1000.4
10 20.10 Ю 5 н/о н/о +22.3 +0.8 24 +22 +22 комфорт 1021.6 1001.0
11 20.10 Ю 6 н/о н/о +21.3 +0.5 25 +21 +21 комфорт 1022.0 1001.4
12 20.10 Ю 8 н/о н/о +20.4 +0.8 27 +20 +20 1022.5 1001.9
14 20.10 Ю 7 н/о н/о +18.2 +1.7 33 +18 +18 1022.7 1002.1
13 20.10 Ю 7 н/о н/о +19.2 +1.7 31 +19 +19 1022.8 1002.2 +26.4
15 20.10 Ю 6 н/о н/о +17.1 +1.1 34 +16 +16 1022.4 1001.8
16 20.10 Ю 6 н/о н/о +16.6 +1.1 35 +16 +16 1022.1 1001.5
17 20.10 Ю 6 н/о н/о +16.0 +1.0 36 +15 +15 1021.6 1001.0
18 20.10 Ю 7 н/о н/о +15.3 +0.3 36 +14 +14 1021.7 1001.1
20 20.10 Ю 6 н/о н/о +13.8 +1.8 44 +12 +12 1022.2 1001.6
19 20.10 Ю 6 н/о н/о +14.5 +1.1 40 +13 +13 1022.1 1001.5
21 20.10 Ю 7 н/о н/о +15.0 +1.5 40 +13 +13 1022.8 1002.2
22 20.10 Ю 8 н/о н/о +15.9 +1.6 38 +14 +14 1023.1 1002.5
23 20.10 ЮВ 8 н/о н/о +17.4 +1.8 35 +16 +16 1023.5 1002.9
00 21.10 ЮВ 8 н/о н/о +18.6 +2.0 33 +18 +18 1023.1 1002.5
02 21.10 Ю 8 н/о н/о +21.1 +0.3 25 +21 +21 комфорт 1021.4 1000.8
01 21.10 Ю 8 н/о н/о +19.7 +1.2 29 +19 +19 1022.5 1001.9 +13.9
03 21.10 Ю 8 н/о н/о +22.7 -0.7 21 +22 +22 комфорт 1020.5 999.9
04 21.10 Ю 9 н/о н/о +23.9 -1.8 18 +22 +22 комфорт 1019.9 999.3
05 21.10 Ю 8 н/о н/о +24.6 -3.7 15 +23 +23 комфорт 1018.8 998.3
06 21.10 Ю 7 н/о н/о +25.1 -4.2 14 +23 +23 комфорт 1018.0 997.5
07 21.10 Ю 8 н/о н/о +26.0 -4.5 13 +23 +23 комфорт 1017.8 997.3

 

Местоположение метеостанции Tibooburra Airport (Новый Южный Уэльс, Австралия): широта -29.45 долгота 142.05 высота над уровнем моря 177 м.

В архиве по умолчанию представлена погода в Tibooburra Airport за последнюю неделю. Архивные данные за месяц целиком и за предыдущие месяцы, начиная с января 2011 года, Вы можете получить, выбрав интересующий диапазон дат из раскрывающегося списка и нажав кнопку "Ввод!".

Внимание! Время в таблицах - всемирное. Для получения местного времени необходимо прибавить поправку, которая в Tibooburra Airport равна 10 ч.

Смотрите также архив погоды в соседних городах и на ближайших метеорологических станциях:

Погода в White Cliffs Aws (Новый Южный Уэльс, Австралия) (184 км)
Погода в Fowlers Gap Aws (Новый Южный Уэльс, Австралия) (184 км)
Погода в Ballera Gas Field (Квинсленд, Австралия) (227 км)
Погода в Moomba Airport (Южная Австралия, Австралия) (235 км)
Погода в Thargomindah Airport (Квинсленд, Австралия) (237 км)
Погода в Wilcannia Aerodrome (Новый Южный Уэльс, Австралия) (263 км)
Погода в Broken Hill Airport (Новый Южный Уэльс, Австралия) (289 км)
Погода в Leigh Creek Airport (Южная Австралия, Австралия) (372 км)
Погода в Bourke Airport Aws (Новый Южный Уэльс, Австралия) (382 км)
Погода в Marree Aero (Южная Австралия, Австралия) (387 км)

Пояснения к столбцам:

Ветер - указаны скорость ветра в м/с - средняя за 10 мин, порывы в срок и между сроками (в фигурных скобках) и направление, откуда дует ветер: С - северный, СВ - северо-восточный, В - восточный, ЮВ - юго-восточный, Ю - южный, ЮЗ - юго-западный, З - западный, СЗ - северо-западный.
Видимость - горизонтальная дальность видимости в метрах или километрах. При видимости от 1 до 10 км при отсутствии осадков обычно наблюдается дымка, при ухудшении видимости до 1 км и менее - туман. В сухую погоду видимость может ухудшаться дымом, пылью или мглою.
Явления - указаны атмосферные явления, наблюдавшиеся в срок или в последний час перед сроком; фигурными скобками обозначены явления, наблюдавшиеся между сроками (за 1-3 часа до срока); квадратными скобками обозначены град или гололедные отложения с указанием их диаметра в мм.
Облачность - указаны через наклонную черту общая и нижняя облачность в баллах и высота нижней границы облаков в метрах; квадратными скобками обозначены формы облаков: Ci - перистые, Cs - перисто-слоистые, Cc - перисто-кучевые, Ac - высококучевые, As - высокослоистые, Sc - слоисто-кучевые, Ns - слоисто-дождевые, Cu - кучевые, Cb - кучево-дождевые. Подробнее классификацию облаков см. в Атласе облаков (PDF).
T - Температура воздуха - температура, измеренная на высоте 2 м над землей.
Td - Температура точки росы - температура, при понижении до которой содержащийся в воздухе водяной пар достигнет насыщения.
f - Относительная влажность воздуха - влажноcть воздуха, измеренная на высоте 2 м над землей.
Te - Эффективная температура - температура, которую ощущает одетый по сезону человек в тени. Характеристика душности погоды. При расчете учитывается влияние влажности воздуха и скорости ветра на теплоощущения человека.
Tes - Эффективная температура на солнце - температура, которую ощущает человек, с поправкой на солнечный нагрев. Характеристика знойности погоды. Зависит от высоты солнца над горизонтом, облачности и скорости ветра. Ночью, в пасмурную погоду, а также при ветре 12 м/с и более поправка равна нулю.
P - Атмосферное давление - приведенное к уровню моря атмосферное давление.
Po - Атмосферное давление - измеренное на уровне метеостанции атмосферное давление.
Tmin - Минимальная температура - минимум температуры воздуха на высоте 2 м над землей.
Tmax - Максимальная температура - максимум температуры воздуха на высоте 2 м над землей.
R - Количество осадков - Количество выпавших осадков за период времени, мм. При наведении курсора мыши на число - период времени, за который выпало указанное количество осадков.
R24 - Количество осадков - Количество выпавших осадков за 24 часа, мм.
S - Снежный покров - Высота снежного покрова, см. При наведении курсора мыши на число - состояние снежного покрова и степень покрытия местности в баллах.